Regional Weather Roundup
Issued by NWS

Home | Current Version | Previous Version | Graphics & Text | Print | Product List | Glossary On
Versions: 1 2 3 4 5 6 7 8 9 10 11 12 13 14 15 16 17 18 19 20 21 22 23 24 25 26 27 28 29 30 31 32 33 34 35 36 37 38 39 40 41 42 43 44 45 46 47 48 49 50
000
ASUS43 KLOT 230700
RWRIL

ILLINOIS REGIONAL WEATHER ROUNDUP
NATIONAL WEATHER SERVICE CHICAGO/ROMEOVILLE IL
200 AM CDT SAT MAY 23 2015

NOTE: "FAIR" INDICATES FEW OR NO CLOUDS BELOW 12,000 FEET WITH NO
SIGNIFICANT WEATHER AND/OR OBSTRUCTIONS TO VISIBILITY.

* THESE STATIONS ARE NOT UNDER NWS QUALITY CONTROL. THEY ALSO MAY NOT
  REPORT WEATHER SUCH AS PRECIPITATION OR FOG.

ILZ001-002-007-009-015-016-024-230800-
NORTHWEST ILLINOIS

CITY           SKY/WX    TMP DP  RH WIND       PRES   REMARKS
MOLINE         MOCLDY    57  48  72 E7        30.23S
STERLING*      MOCLDY    55  36  47 E7        30.26S
$$

ILZ003-004-008-010-011-017-018-230800-
NORTH CENTRAL ILLINOIS

CITY           SKY/WX    TMP DP  RH WIND       PRES   REMARKS
ROCKFORD       CLEAR     52  33  48 CALM      30.30S
FREEPORT*      PTCLDY    48  36  63 E6        30.29S
$$

ILZ005-006-012>014-019>023-230800-
NORTHEAST ILLINOIS

CITY           SKY/WX    TMP DP  RH WIND       PRES   REMARKS
CHICAGO-OHARE  MOCLDY    50  32  50 SE5       30.28F
CHICAGO-MIDWAY MOCLDY    55  39  54 E5        30.29S
AURORA         PTCLDY    47  35  63 E3        30.29S
WAUKEGAN       PTCLDY    44  35  70 SW3       30.28F
DUPAGE AIRPORT PTCLDY    48  35  60 CALM      30.28S
WHEELING       PTCLDY    47  37  68 CALM      30.31S
NORTHERLY ISL    N/A     52  41  66 S2          N/A
$$

LMZ740>746-230800-
SOUTHERN LAKE MICHIGAN

STATION/POSITION SKY/WX   TEMP    WIND        PRES    VSBY  WAVE
                          AIR SEA DIR/SP/G                  HT/PER
                          (F)     (DEG/KT/KT) (MB)    (MI)  (FT/S)
SOUTHERN BUOY              47 38  190/ 10/ 12 1026.3R         0
HARRISON CRIB              52     140/  6/  7   N/A
BURNHAM HARBOR             51      CALM  /  5   N/A
CALUMET HARBOR             53      80/  3/  5   N/A
BURNS HARBOR               60     120/ 15/ 18 1026.1S
MICHIGAN CITY              54     110/  8/  9   N/A
MICHIGAN CITY 6N           53 52  120/  4/  4   N/A           1/ 3
ST. JOSEPH                 55 53  160/  4/  6   N/A           1
$$

ILZ025>027-034>036-040-047-049-050-058-095>099-230800-
WEST-CENTRAL ILLINOIS

CITY           SKY/WX    TMP DP  RH WIND       PRES   REMARKS
QUINCY         CLOUDY    57  53  86 CALM      30.24R
MACOMB*        PTCLDY    58  55  87 CALM      30.25S
$$

ILZ028>032-037-038-041>044-048-051>054-059>061-230800-
CENTRAL ILLINOIS

CITY           SKY/WX    TMP DP  RH WIND       PRES   REMARKS
DECATUR        CLOUDY    64  51  62 S8        30.24F
PEORIA         MOCLDY    61  47  59 NE6       30.25S
SPRINGFIELD    CLOUDY    61  54  77 N5        30.24S
TAYLORVILLE    NOT AVBL
$$

ILZ033-039-045-046-055>057-062-063-230800-
EAST-CENTRAL ILLINOIS

CITY           SKY/WX    TMP DP  RH WIND       PRES   REMARKS
CHAMPAIGN      CLOUDY    61  43  51 E8        30.26S
MATTOON        CLOUDY    58  52  80 SE5       30.24F
$$

ILZ079-100>102-230800-
SOUTHWEST ILLINOIS

CITY           SKY/WX    TMP DP  RH WIND       PRES   REMARKS
BELLEVILLE     CLOUDY    61  58  90 S1        30.25R
CAHOKIA*       CLOUDY    63  55  75 CALM      30.25S
SPARTA*        CLOUDY    61  54  78 CALM      30.27R
$$

ILZ064>066-069>071-074>076-080>082-084>086-088>090-092>094-230800-
SOUTH-CENTRAL ILLINOIS

CITY           SKY/WX    TMP DP  RH WIND       PRES   REMARKS
CARBONDALE     MOCLDY    57  54  89 CALM      30.26R
MT. VERNON     CLOUDY    55  52  88 CALM      30.27R
SALEM*         CLOUDY    62  55  79 CALM      30.26S
$$

ILZ067-068-072-073-078-083-087-091-230800-
SOUTHEAST ILLINOIS

CITY           SKY/WX    TMP DP  RH WIND       PRES   REMARKS
LAWRENCEVILLE  CLOUDY    61  54  77 CALM      30.28S
HARRISBURG*    MOCLDY    58  57  99 CALM      30.27S
$$

ABBREVIATIONS USED IN REMARKS
   TC - TEMPERATURE IN CELSIUS
  WCI - WIND CHILL INDEX
   HX - HEAT INDEX
  VSB - VISIBILITY
$$



USA.gov is the U.S. government's official web portal to all federal, state and local government web resources and services.